Location: Brno
(49.2000°N, 16.6330°E)
Time: 06:31:42
(UTC+02:00)

CARTOSAT-1 - Visible Passes

Search period start: 01 July 2016 00:00
Search period end: 11 July 2016 00:00
Orbit: 616 x 621 km, 97.9° (Epoch: 30 June)

Date Brightness Start Highest point End Pass type
(mag) Time Alt. Az. Time Alt. Az. Time Alt. Az.
01 Jul 5.1 21:37:27 10° ESE 21:40:56 24° ENE 21:44:24 10° N visible
01 Jul 4.5 23:13:35 15° SSW 23:16:48 42° W 23:20:55 10° NNW visible
02 Jul 4.6 21:53:43 10° SE 21:57:36 33° ENE 22:01:29 10° N visible
02 Jul 5.0 23:30:35 13° SSW 23:33:41 29° W 23:37:29 10° NW visible
03 Jul 4.1 22:10:27 12° SE 22:14:18 47° ENE 22:18:27 10° N visible
03 Jul 5.6 23:47:35 11° SW 23:50:38 20° W 23:53:53 10° NW visible
04 Jul 3.6 22:27:27 14° SSE 22:31:03 69° ENE 22:35:21 10° N visible
05 Jul 6.0 00:05:15 10° WSW 00:07:37 14° W 00:09:59 10° NW visible
05 Jul 3.6 22:44:27 16° S 22:47:50 82° WSW 22:52:11 10° NNW visible
06 Jul 4.0 23:01:28 17° S 23:04:40 55° W 23:08:56 10° NNW visible
07 Jul 4.9 21:42:01 10° ESE 21:45:37 26° ENE 21:49:12 10° N visible
07 Jul 4.6 23:18:29 16° SSW 23:21:33 38° W 23:25:36 10° NNW visible
08 Jul 4.4 21:58:22 10° SE 22:02:18 36° ENE 22:06:17 10° N visible
08 Jul 5.2 23:35:30 13° SW 23:38:28 26° W 23:42:08 10° NW visible
09 Jul 3.9 22:15:23 13° SE 22:19:02 52° ENE 22:23:14 10° N visible
09 Jul 5.7 23:52:31 11° SW 23:55:25 19° W 23:58:28 10° NW visible
10 Jul 3.6 22:32:25 16° SSE 22:35:48 77° ENE 22:40:07 10° N visible
